Time,TemperatureF,DewpointF,PressureIn,WindDirection,WindDirectionDegrees,WindSpeedMPH,WindSpeedGustMPH,Humidity,HourlyPrecipIn,Conditions,Clouds,dailyrainin,SoftwareType,DateUTC
2018-04-22 00:00:00,62.7,57.1,29.81,SSE,163,9.0,16.0,82,0.00,CLR,CLR,0.00,WeatherDisplay:10.37,2018-04-21 23:00:00,
2018-04-22 00:05:00,62.7,57.1,29.81,SSE,162,7.0,12.0,82,0.00,CLR,CLR,0.00,WeatherDisplay:10.37,2018-04-21 23:05:00,
2018-04-22 00:10:00,62.6,57.0,29.81,SSE,163,9.0,16.0,82,0.00,CLR,CLR,0.00,WeatherDisplay:10.37,2018-04-21 23:10:00,
2018-04-22 00:15:00,62.6,56.7,29.81,SSE,166,9.0,14.0,81,0.00,CLR,CLR,0.00,WeatherDisplay:10.37,2018-04-21 23:15:00,
2018-04-22 00:20:00,62.5,56.6,29.81,SSE,163,8.0,13.0,81,0.00,CLR,CLR,0.00,WeatherDisplay:10.37,2018-04-21 23:20:00,
2018-04-22 00:25:00,62.3,56.4,29.80,SSE,167,8.0,13.0,81,0.00,CLR,CLR,0.00,WeatherDisplay:10.37,2018-04-21 23:25:00,
2018-04-22 00:30:00,62.2,56.3,29.80,South,171,9.0,15.0,81,0.00,CLR,CLR,0.00,WeatherDisplay:10.37,2018-04-21 23:30:00,
2018-04-22 00:35:00,62.0,56.1,29.80,South,174,7.0,12.0,81,0.00,CLR,CLR,0.00,WeatherDisplay:10.37,2018-04-21 23:35:00,
2018-04-22 00:40:00,61.7,56.1,29.81,South,175,9.0,14.0,82,0.00,CLR,CLR,0.00,WeatherDisplay:10.37,2018-04-21 23:40:00,
2018-04-22 00:45:00,61.5,55.6,29.81,South,173,8.0,12.0,81,0.00,CLR,CLR,0.00,WeatherDisplay:10.37,2018-04-21 23:45:00,
2018-04-22 00:50:00,61.3,55.8,29.80,South,172,9.0,13.0,82,0.00,CLR,CLR,0.00,WeatherDisplay:10.37,2018-04-21 23:50:00,
2018-04-22 00:55:00,61.3,55.8,29.80,South,173,9.0,13.0,82,0.00,CLR,CLR,0.00,WeatherDisplay:10.37,2018-04-21 23:55:00,
2018-04-22 01:00:00,61.3,55.4,29.80,SSE,167,10.0,16.0,81,0.00,CLR,CLR,0.00,WeatherDisplay:10.37,2018-04-22 00:00:00,
2018-04-22 01:05:00,61.3,55.4,29.80,SSE,167,9.0,16.0,81,0.00,CLR,CLR,0.00,WeatherDisplay:10.37,2018-04-22 00:05:00,
2018-04-22 01:10:00,61.3,55.4,29.80,SSE,165,8.0,16.0,81,0.00,CLR,CLR,0.00,WeatherDisplay:10.37,2018-04-22 00:10:00,
2018-04-22 01:15:00,61.2,55.3,29.80,SSE,162,6.0,12.0,81,0.00,CLR,CLR,0.00,WeatherDisplay:10.37,2018-04-22 00:15:00,
2018-04-22 01:19:00,61.1,55.2,29.79,SSE,163,7.0,12.0,81,0.00,CLR,CLR,0.00,WeatherDisplay:10.37,2018-04-22 00:19:00,
2018-04-22 01:25:00,61.0,55.1,29.80,South,169,7.0,13.0,81,0.00,CLR,CLR,0.00,WeatherDisplay:10.37,2018-04-22 00:25:00,
2018-04-22 01:30:00,60.8,55.2,29.79,SSE,166,7.0,12.0,82,0.00,CLR,CLR,0.00,WeatherDisplay:10.37,2018-04-22 00:30:00,
2018-04-22 01:35:00,60.6,55.1,29.79,SSE,166,7.0,14.0,82,0.00,CLR,CLR,0.00,WeatherDisplay:10.37,2018-04-22 00:35:00,
2018-04-22 01:40:00,60.4,54.9,29.79,South,169,8.0,12.0,82,0.00,CLR,CLR,0.00,WeatherDisplay:10.37,2018-04-22 00:40:00,
2018-04-22 01:45:00,60.3,54.8,29.78,SSE,165,8.0,13.0,82,0.00,CLR,CLR,0.00,WeatherDisplay:10.37,2018-04-22 00:45:00,
2018-04-22 01:49:00,60.1,54.6,29.78,SSE,160,6.0,12.0,82,0.00,CLR,CLR,0.00,WeatherDisplay:10.37,2018-04-22 00:49:00,
2018-04-22 01:55:00,60.1,54.6,29.78,SSE,154,7.0,14.0,82,0.00,CLR,CLR,0.00,WeatherDisplay:10.37,2018-04-22 00:55:00,
2018-04-22 02:00:00,60.2,54.7,29.77,SSE,156,6.0,10.0,82,0.00,CLR,CLR,0.00,WeatherDisplay:10.37,2018-04-22 01:00:00,
2018-04-22 02:05:00,60.0,54.5,29.77,SSE,161,8.0,12.0,82,0.00,CLR,CLR,0.00,WeatherDisplay:10.37,2018-04-22 01:05:00,
2018-04-22 02:10:00,59.9,54.4,29.77,SSE,161,8.0,12.0,82,0.00,CLR,CLR,0.00,WeatherDisplay:10.37,2018-04-22 01:10:00,
2018-04-22 02:15:00,59.8,54.3,29.77,SSE,164,8.0,15.0,82,0.00,CLR,CLR,0.00,WeatherDisplay:10.37,2018-04-22 01:15:00,
2018-04-22 02:20:00,60.0,54.5,29.77,SSE,157,7.0,12.0,82,0.00,CLR,CLR,0.00,WeatherDisplay:10.37,2018-04-22 01:20:00,
2018-04-22 02:25:00,60.1,54.6,29.77,SSE,157,7.0,13.0,82,0.00,CLR,CLR,0.00,WeatherDisplay:10.37,2018-04-22 01:25:00,
2018-04-22 02:30:00,60.1,54.6,29.76,SSE,161,8.0,13.0,82,0.00,CLR,CLR,0.00,WeatherDisplay:10.37,2018-04-22 01:30:00,
2018-04-22 02:35:00,60.1,54.6,29.76,South,169,8.0,15.0,82,0.00,CLR,CLR,0.00,WeatherDisplay:10.37,2018-04-22 01:35:00,
2018-04-22 02:40:00,60.1,54.6,29.76,SSE,159,7.0,13.0,82,0.00,CLR,CLR,0.00,WeatherDisplay:10.37,2018-04-22 01:40:00,
2018-04-22 02:45:00,60.1,54.6,29.76,SSE,150,7.0,13.0,82,0.00,CLR,CLR,0.00,WeatherDisplay:10.37,2018-04-22 01:45:00,
2018-04-22 02:49:00,60.1,54.6,29.76,SSE,158,9.0,16.0,82,0.00,CLR,CLR,0.00,WeatherDisplay:10.37,2018-04-22 01:49:00,
2018-04-22 02:55:00,60.0,54.5,29.76,SSE,165,8.0,12.0,82,0.00,CLR,CLR,0.00,WeatherDisplay:10.37,2018-04-22 01:55:00,
2018-04-22 03:00:00,59.8,54.3,29.76,South,172,7.0,12.0,82,0.00,CLR,CLR,0.00,WeatherDisplay:10.37,2018-04-22 02:00:00,
2018-04-22 03:04:00,59.5,54.0,29.76,South,173,8.0,14.0,82,0.00,CLR,CLR,0.00,WeatherDisplay:10.37,2018-04-22 02:04:00,
2018-04-22 03:10:00,59.4,54.2,29.76,South,175,7.0,14.0,83,0.00,CLR,CLR,0.00,WeatherDisplay:10.37,2018-04-22 02:10:00,
2018-04-22 03:14:00,59.3,54.1,29.76,South,171,10.0,14.0,83,0.00,CLR,CLR,0.00,WeatherDisplay:10.37,2018-04-22 02:14:00,
2018-04-22 03:20:00,59.3,54.1,29.76,SSE,167,7.0,13.0,83,0.00,CLR,CLR,0.00,WeatherDisplay:10.37,2018-04-22 02:20:00,
2018-04-22 03:24:00,59.2,54.0,29.76,South,171,9.0,13.0,83,0.00,CLR,CLR,0.00,WeatherDisplay:10.37,2018-04-22 02:24:00,
2018-04-22 03:30:00,59.3,54.1,29.76,South,174,8.0,14.0,83,0.00,CLR,CLR,0.00,WeatherDisplay:10.37,2018-04-22 02:30:00,
2018-04-22 03:35:00,59.3,54.1,29.76,South,175,7.0,13.0,83,0.00,CLR,CLR,0.00,WeatherDisplay:10.37,2018-04-22 02:35:00,
2018-04-22 03:40:00,59.3,54.1,29.75,South,172,8.0,12.0,83,0.00,CLR,CLR,0.00,WeatherDisplay:10.37,2018-04-22 02:40:00,
2018-04-22 03:45:00,59.2,54.0,29.75,SSE,168,8.0,14.0,83,0.00,CLR,CLR,0.00,WeatherDisplay:10.37,2018-04-22 02:45:00,
2018-04-22 03:50:00,59.2,54.0,29.75,SSE,167,6.0,12.0,83,0.00,CLR,CLR,0.00,WeatherDisplay:10.37,2018-04-22 02:50:00,
2018-04-22 03:54:00,59.0,53.8,29.75,SSE,166,7.0,13.0,83,0.00,CLR,CLR,0.00,WeatherDisplay:10.37,2018-04-22 02:54:00,
2018-04-22 04:00:00,58.8,53.6,29.75,South,172,6.0,12.0,83,0.00,CLR,CLR,0.00,WeatherDisplay:10.37,2018-04-22 03:00:00,
2018-04-22 04:04:00,58.5,53.7,29.75,South,172,7.0,10.0,84,0.00,CLR,CLR,0.00,WeatherDisplay:10.37,2018-04-22 03:04:00,
2018-04-22 04:15:00,58.0,53.5,29.74,South,173,7.0,12.0,85,0.00,CLR,CLR,0.00,WeatherDisplay:10.37,2018-04-22 03:15:00,
2018-04-22 04:19:00,57.7,53.2,29.74,South,174,7.0,10.0,85,0.00,CLR,CLR,0.00,WeatherDisplay:10.37,2018-04-22 03:19:00,
2018-04-22 04:25:00,57.5,53.4,29.74,South,175,8.0,12.0,86,0.00,CLR,CLR,0.00,WeatherDisplay:10.37,2018-04-22 03:25:00,
2018-04-22 04:29:00,57.3,53.2,29.74,South,179,7.0,12.0,86,0.00,CLR,CLR,0.00,WeatherDisplay:10.37,2018-04-22 03:29:00,
2018-04-22 04:34:00,57.1,53.0,29.73,South,181,7.0,12.0,86,0.00,CLR,CLR,0.00,WeatherDisplay:10.37,2018-04-22 03:34:00,
2018-04-22 04:40:00,56.9,53.1,29.73,South,178,7.0,10.0,87,0.00,CLR,CLR,0.00,WeatherDisplay:10.37,2018-04-22 03:40:00,
2018-04-22 04:44:00,56.7,52.9,29.73,South,173,7.0,9.0,87,0.00,CLR,CLR,0.00,WeatherDisplay:10.37,2018-04-22 03:44:00,
2018-04-22 04:50:00,56.6,52.8,29.73,South,174,5.0,9.0,87,0.00,CLR,CLR,0.00,WeatherDisplay:10.37,2018-04-22 03:50:00,
2018-04-22 04:54:00,56.4,52.9,29.73,South,173,6.0,10.0,88,0.00,CLR,CLR,0.00,WeatherDisplay:10.37,2018-04-22 03:54:00,
2018-04-22 04:59:00,56.3,52.8,29.73,South,175,6.0,9.0,88,0.00,CLR,CLR,0.00,WeatherDisplay:10.37,2018-04-22 03:59:00,
2018-04-22 05:05:00,56.2,52.7,29.73,South,172,7.0,10.0,88,0.00,CLR,CLR,0.00,WeatherDisplay:10.37,2018-04-22 04:05:00,
2018-04-22 05:09:00,56.2,53.0,29.72,South,175,6.0,8.0,89,0.00,CLR,CLR,0.00,WeatherDisplay:10.37,2018-04-22 04:09:00,
2018-04-22 05:15:00,56.2,53.0,29.72,South,172,7.0,10.0,89,0.00,CLR,CLR,0.00,WeatherDisplay:10.37,2018-04-22 04:15:00,
2018-04-22 05:19:00,56.1,52.9,29.72,SSE,164,6.0,12.0,89,0.00,CLR,CLR,0.00,WeatherDisplay:10.37,2018-04-22 04:19:00,
2018-04-22 05:24:00,56.1,52.9,29.72,SSE,165,6.0,9.0,89,0.00,CLR,CLR,0.00,WeatherDisplay:10.37,2018-04-22 04:24:00,
2018-04-22 05:30:00,56.1,52.9,29.72,SSE,168,6.0,9.0,89,0.00,CLR,CLR,0.00,WeatherDisplay:10.37,2018-04-22 04:30:00,
2018-04-22 05:34:00,56.2,53.3,29.72,SSE,168,5.0,10.0,90,0.00,CLR,CLR,0.00,WeatherDisplay:10.37,2018-04-22 04:34:00,
2018-04-22 05:40:00,56.3,53.4,29.72,SSE,167,5.0,10.0,90,0.00,CLR,CLR,0.00,WeatherDisplay:10.37,2018-04-22 04:40:00,
2018-04-22 05:44:00,56.4,53.5,29.72,South,172,6.0,9.0,90,0.00,CLR,CLR,0.00,WeatherDisplay:10.37,2018-04-22 04:44:00,
2018-04-22 05:49:00,56.6,53.7,29.72,South,181,6.0,10.0,90,0.00,CLR,CLR,0.00,WeatherDisplay:10.37,2018-04-22 04:49:00,
2018-04-22 05:54:00,56.6,53.7,29.72,SSW,195,5.0,8.0,90,0.00,CLR,CLR,0.00,WeatherDisplay:10.37,2018-04-22 04:54:00,
2018-04-22 05:59:00,56.6,53.4,29.72,SW,230,3.0,8.0,89,0.00,CLR,CLR,0.00,WeatherDisplay:10.37,2018-04-22 04:59:00,
2018-04-22 06:04:00,56.4,53.2,29.72,WSW,251,2.0,5.0,89,0.00,CLR,CLR,0.00,WeatherDisplay:10.37,2018-04-22 05:04:00,
2018-04-22 06:10:00,56.2,53.3,29.71,SW,226,2.0,6.0,90,0.00,CLR,CLR,0.00,WeatherDisplay:10.37,2018-04-22 05:10:00,
2018-04-22 06:14:00,56.1,53.2,29.71,WSW,248,2.0,6.0,90,0.00,CLR,CLR,0.00,WeatherDisplay:10.37,2018-04-22 05:14:00,
2018-04-22 06:20:00,56.0,53.1,29.71,West,264,2.0,3.0,90,0.00,CLR,CLR,0.00,WeatherDisplay:10.37,2018-04-22 05:20:00,
2018-04-22 06:24:00,56.0,53.1,29.72,WSW,257,3.0,4.0,90,0.00,CLR,CLR,0.00,WeatherDisplay:10.37,2018-04-22 05:24:00,
2018-04-22 06:30:00,56.1,53.2,29.72,WSW,256,2.0,5.0,90,0.00,CLR,CLR,0.00,WeatherDisplay:10.37,2018-04-22 05:30:00,
2018-04-22 06:35:00,56.0,53.1,29.71,West,259,1.0,3.0,90,0.00,CLR,CLR,0.00,WeatherDisplay:10.37,2018-04-22 05:35:00,
2018-04-22 06:39:00,55.9,53.0,29.71,West,263,0.0,3.0,90,0.00,CLR,CLR,0.00,WeatherDisplay:10.37,2018-04-22 05:39:00,
2018-04-22 06:45:00,55.8,52.9,29.71,West,264,0.0,1.0,90,0.00,CLR,CLR,0.00,WeatherDisplay:10.37,2018-04-22 05:45:00,
2018-04-22 06:50:00,55.6,52.7,29.71,West,277,2.0,5.0,90,0.00,CLR,CLR,0.00,WeatherDisplay:10.37,2018-04-22 05:50:00,
2018-04-22 06:55:00,55.4,52.5,29.72,NW,311,5.0,8.0,90,0.00,CLR,CLR,0.00,WeatherDisplay:10.37,2018-04-22 05:55:00,
2018-04-22 07:00:00,55.2,52.0,29.71,NW,321,1.0,6.0,89,0.00,CLR,CLR,0.00,WeatherDisplay:10.37,2018-04-22 06:00:00,
2018-04-22 07:05:00,55.1,51.9,29.71,NW,321,3.0,4.0,89,0.00,CLR,CLR,0.00,WeatherDisplay:10.37,2018-04-22 06:05:00,
2018-04-22 07:09:00,55.1,51.6,29.71,NW,317,3.0,6.0,88,0.00,CLR,CLR,0.00,WeatherDisplay:10.37,2018-04-22 06:09:00,
2018-04-22 07:14:00,55.0,51.5,29.71,NW,315,2.0,4.0,88,0.00,CLR,CLR,0.00,WeatherDisplay:10.37,2018-04-22 06:14:00,
2018-04-22 07:20:00,55.0,51.5,29.71,West,280,2.0,5.0,88,0.00,CLR,CLR,0.00,WeatherDisplay:10.37,2018-04-22 06:20:00,
2018-04-22 07:24:00,55.0,51.5,29.71,West,261,1.0,4.0,88,0.00,CLR,CLR,0.00,WeatherDisplay:10.37,2018-04-22 06:24:00,
2018-04-22 07:30:00,55.0,51.5,29.72,West,271,2.0,4.0,88,0.00,CLR,CLR,0.00,WeatherDisplay:10.37,2018-04-22 06:30:00,
2018-04-22 07:34:00,55.0,51.5,29.72,West,276,2.0,5.0,88,0.00,CLR,CLR,0.00,WeatherDisplay:10.37,2018-04-22 06:34:00,
2018-04-22 07:40:00,55.0,51.5,29.72,West,278,2.0,6.0,88,0.00,CLR,CLR,0.00,WeatherDisplay:10.37,2018-04-22 06:40:00,
2018-04-22 07:44:00,54.8,51.4,29.72,West,277,5.0,7.0,88,0.00,CLR,CLR,0.00,WeatherDisplay:10.37,2018-04-22 06:44:00,
2018-04-22 07:50:00,54.7,50.9,29.72,West,276,6.0,9.0,87,0.00,CLR,CLR,0.00,WeatherDisplay:10.37,2018-04-22 06:50:00,
2018-04-22 07:54:00,54.5,50.7,29.72,West,276,3.0,7.0,87,0.00,CLR,CLR,0.00,WeatherDisplay:10.37,2018-04-22 06:54:00,
2018-04-22 08:00:00,54.4,50.3,29.72,West,280,3.0,6.0,86,0.00,CLR,CLR,0.00,WeatherDisplay:10.37,2018-04-22 07:00:00,
2018-04-22 08:05:00,54.3,50.2,29.72,West,276,6.0,10.0,86,0.00,CLR,CLR,0.00,WeatherDisplay:10.37,2018-04-22 07:05:00,
2018-04-22 08:09:00,54.2,49.8,29.72,West,272,5.0,8.0,85,0.00,CLR,CLR,0.00,WeatherDisplay:10.37,2018-04-22 07:09:00,
2018-04-22 08:15:00,54.1,49.7,29.72,West,274,3.0,8.0,85,0.00,CLR,CLR,0.00,WeatherDisplay:10.37,2018-04-22 07:15:00,
2018-04-22 08:20:00,54.1,49.7,29.72,West,271,2.0,6.0,85,0.00,CLR,CLR,0.00,WeatherDisplay:10.37,2018-04-22 07:20:00,
2018-04-22 08:24:00,54.0,49.3,29.72,West,268,3.0,7.0,84,0.00,CLR,CLR,0.00,WeatherDisplay:10.37,2018-04-22 07:24:00,
2018-04-22 08:30:00,53.7,48.3,29.73,West,278,3.0,9.0,82,0.00,CLR,CLR,0.00,WeatherDisplay:10.37,2018-04-22 07:30:00,
2018-04-22 08:34:00,53.4,47.7,29.73,West,277,6.0,9.0,81,0.00,CLR,CLR,0.00,WeatherDisplay:10.37,2018-04-22 07:34:00,
2018-04-22 08:40:00,53.1,47.1,29.73,West,272,7.0,10.0,80,0.00,CLR,CLR,0.00,WeatherDisplay:10.37,2018-04-22 07:40:00,
2018-04-22 08:45:00,52.8,45.8,29.73,West,273,6.0,12.0,77,0.00,CLR,CLR,0.00,WeatherDisplay:10.37,2018-04-22 07:45:00,
2018-04-22 08:49:00,52.6,45.3,29.73,West,267,6.0,10.0,76,0.00,CLR,CLR,0.00,WeatherDisplay:10.37,2018-04-22 07:49:00,
2018-04-22 08:54:00,52.3,44.6,29.74,West,259,6.0,12.0,75,0.00,CLR,CLR,0.00,WeatherDisplay:10.37,2018-04-22 07:54:00,
2018-04-22 08:59:00,51.9,45.2,29.74,West,260,6.0,12.0,78,0.01,RA,RA,0.01,WeatherDisplay:10.37,2018-04-22 07:59:00,
2018-04-22 09:04:00,51.0,45.1,29.74,West,261,6.0,10.0,80,0.00,RA,RA,0.01,WeatherDisplay:10.37,2018-04-22 08:04:00,
2018-04-22 09:10:00,50.3,44.7,29.74,West,263,7.0,12.0,81,0.00,,,0.01,WeatherDisplay:10.37,2018-04-22 08:10:00,
2018-04-22 09:14:00,49.9,44.6,29.74,West,259,8.0,12.0,82,0.00,,,0.01,WeatherDisplay:10.37,2018-04-22 08:14:00,
2018-04-22 09:20:00,49.7,44.4,29.74,West,268,8.0,12.0,82,0.00,,,0.01,WeatherDisplay:10.37,2018-04-22 08:20:00,
2018-04-22 09:25:00,49.5,44.6,29.74,West,270,6.0,12.0,83,0.01,RA,RA,0.02,WeatherDisplay:10.37,2018-04-22 08:25:00,
2018-04-22 09:29:00,49.2,44.6,29.74,West,271,7.0,12.0,84,0.01,RA,RA,0.02,WeatherDisplay:10.37,2018-04-22 08:29:00,
2018-04-22 09:35:00,49.1,44.8,29.74,West,270,5.0,9.0,85,0.00,RA,RA,0.02,WeatherDisplay:10.37,2018-04-22 08:35:00,
2018-04-22 09:39:00,49.0,44.7,29.73,WSW,255,1.0,4.0,85,0.00,,,0.02,WeatherDisplay:10.37,2018-04-22 08:39:00,
2018-04-22 09:44:00,49.0,45.0,29.73,South,172,1.0,2.0,86,0.00,,,0.02,WeatherDisplay:10.37,2018-04-22 08:44:00,
2018-04-22 09:49:00,49.2,45.5,29.74,WSW,238,2.0,4.0,87,0.00,,,0.02,WeatherDisplay:10.37,2018-04-22 08:49:00,
2018-04-22 09:55:00,49.2,45.5,29.74,West,265,0.0,2.0,87,0.00,,,0.02,WeatherDisplay:10.37,2018-04-22 08:55:00,
2018-04-22 09:59:00,49.3,45.9,29.75,West,267,1.0,3.0,88,0.00,,,0.02,WeatherDisplay:10.37,2018-04-22 08:59:00,
2018-04-22 10:05:00,49.2,45.5,29.74,West,267,0.0,1.0,87,0.00,,,0.02,WeatherDisplay:10.37,2018-04-22 09:05:00,
2018-04-22 10:09:00,49.2,45.8,29.74,SSW,194,2.0,3.0,88,0.01,RA,RA,0.03,WeatherDisplay:10.37,2018-04-22 09:09:00,